Trail des petits Castors (Banneux)
Trail des petits Castors (Banneux) 26/02/2017 - 21 km
Mise à jour le : 26/02/2017 à 13:43
Classement définitif, aucune correction possible
Place Nom Prénom Dossard Temps Vitesse Allure Place. Cat. Catégorie
1 WATERVAL CLAUDE 2257 1:25:07 14,80 4:03 1 Séniors
2 LAMBOTTE BENOIT 2373 1:25:43 14,70 4:04 2 Séniors
3 MICHEL LUC 2347 1:26:42 14,53 4:07 3 Séniors
4 ESTE SÉBASTIEN 2084 1:30:46 13,88 4:19 4 Séniors
5 KAILS REMY 2409 1:34:29 13,33 4:29 5 Séniors
6 LEONET MARTIN 2333 1:35:25 13,21 4:32 6 Séniors
7 STOLLENBERG JORDI 2453 1:35:44 13,16 4:33 7 Séniors
8 JACQUINET ERIC 2325 1:35:45 13,16 4:33 8 Séniors
9 COUTREZ ALEXANDRE 2427 1:35:52 13,14 4:33 9 Séniors
10 VROMEN PIERRE-YVES 2353 1:37:02 12,98 4:37 10 Séniors
11 GODFROID JAN-ERIC 2279 1:37:28 12,93 4:38 1 Vétérans 1
12 GREGOIRE JOEL 2332 1:37:54 12,87 4:39 2 Vétérans 1
13 DEVOS JIMMY 2276 1:40:07 12,58 4:46 11 Séniors
14 KILESSE MATHIEU 2312 1:40:57 12,48 4:48 12 Séniors
15 HENROTTIN GAEL 2471 1:41:07 12,46 4:48 13 Séniors
16 GYSEN GERALD 2343 1:41:07 12,46 4:48 14 Séniors
17 NIZET KEVIN 2396 1:41:26 12,42 4:49 15 Séniors
18 VINCENT GAUTHIER 2253 1:41:52 12,37 4:51 16 Séniors
19 JACOB-PAQUAY ERIC 2360 1:41:58 12,36 4:51 3 Vétérans 1
20 EVRARD AMAURY 2365 1:42:23 12,31 4:52 17 Séniors
21 GIVRON REGIS 2101 1:42:51 12,25 4:53 18 Séniors
22 SWARTENBROUCKX VINCENT 2313 1:42:53 12,25 4:53 4 Vétérans 1
23 GONAY JEROME 2334 1:43:04 12,22 4:54 19 Séniors
24 GOMEZ XAVIER 2104 1:43:06 12,22 4:54 5 Vétérans 1
25 GARCIA FABRICE 2093 1:43:08 12,22 4:54 6 Vétérans 1
26 DARCIS GILLES 2464 1:43:10 12,21 4:54 20 Séniors
27 HENNAU GAËL 2114 1:43:12 12,21 4:54 21 Séniors
28 VIS STEPHAN 2458 1:43:14 12,21 4:54 7 Vétérans 1
29 LOMRE FRED 2331 1:43:22 12,19 4:55 8 Vétérans 1
30 DEDRY ANTOINE 2404 1:44:11 12,09 4:57 22 Séniors
31 MAGOCHE MATHIEU 2166 1:44:44 12,03 4:59 23 Séniors
32 LEMAIRE CHRISTOPHE 2302 1:45:05 11,99 5:00 9 Vétérans 1
33 LEMARCHAL VINCENT 2342 1:45:19 11,96 5:00 24 Séniors
34 DARTE ERIC 2368 1:45:24 11,95 5:01 1 Vétérans 2
35 ROCK NICOLAS 2211 1:45:50 11,90 5:02 25 Séniors
36 LESO PIERRE 2156 1:45:52 11,90 5:02 26 Séniors
37 VAN RELEGEM TONY 2280 1:45:53 11,90 5:02 2 Vétérans 2
38 JANSSEN JOSEPH 2371 1:45:56 11,89 5:02 27 Séniors
39 BASTIN RODOLPHE 2354 1:46:33 11,82 5:04 28 Séniors
40 HENDRICK JULIEN 2346 1:46:50 11,79 5:05 29 Séniors
41 SCHMETZ OLIVIER 2223 1:46:56 11,78 5:05 10 Vétérans 1
42 PERPINIEN GEOFFREY 2194 1:48:05 11,66 5:08 11 Vétérans 1
43 DEFOSSA ARNOULD 2451 1:48:10 11,65 5:09 30 Séniors
44 RENKENS PHILIPPE 2209 1:48:44 11,59 5:10 31 Séniors
45 DELHALLE LAURENT 2383 1:48:45 11,59 5:10 12 Vétérans 1
46 PIQUERAY STEPHANE 2403 1:48:56 11,57 5:11 3 Vétérans 2
47 DEFLANDRE RUDY 2484 1:49:02 11,56 5:11 13 Vétérans 1
48 WEICKMANS DAVID 2466 1:49:03 11,55 5:11 32 Séniors
49 LEJEUNE PHILIPPE 2326 1:49:13 11,53 5:12 4 Vétérans 2
50 MERCENIR ALAIN 2316 1:49:15 11,53 5:12 14 Vétérans 1
51 GROSJEAN GEOFFREY 2107 1:49:17 11,53 5:12 33 Séniors
52 HORTEN JEAN-PHILIPPE 2122 1:49:18 11,53 5:12 34 Séniors
53 DELVA JANICK 2426 1:49:21 11,52 5:12 1 Ainées 2
54 THUNUS EDDY 2455 1:49:22 11,52 5:12 15 Vétérans 1
55 BONHOMME RUDY 2479 1:50:04 11,45 5:14 35 Séniors
56 RALET HUGO 2452 1:50:07 11,44 5:14 36 Séniors
57 JANDRAIN FRANÇOIS 2305 1:50:33 11,40 5:15 16 Vétérans 1
58 VAN DEN BULCK CHRISTOPHE 2242 1:51:20 11,32 5:18 37 Séniors
59 VERCRUYSSE FREDERIC 2328 1:52:10 11,23 5:20 38 Séniors
60 GERARD OLIVIER 2097 1:52:18 11,22 5:20 39 Séniors
61 LARREY JÉRÉMIE 2143 1:52:43 11,18 5:22 40 Séniors
62 PARTHOENS ROLAND 2192 1:52:57 11,15 5:22 17 Vétérans 1
63 GENREITH VINCENT 2358 1:53:07 11,14 5:23 18 Vétérans 1
64 DE MEUTER FREDERIC 2388 1:53:14 11,13 5:23 41 Séniors
65 BAIJOT ANTOINE 2469 1:53:18 11,12 5:23 42 Séniors
66 DELVAUX DAVID 2059 1:53:19 11,12 5:23 43 Séniors
67 JOASSART MARTIN 2133 1:53:20 11,12 5:23 44 Séniors
68 DEMOULIN CHRISTOPHE 2412 1:53:42 11,08 5:24 45 Séniors
69 STIENEN RUDI 2231 1:54:07 11,04 5:26 19 Vétérans 1
70 RITROVATO SYLVAIN 2441 1:54:13 11,03 5:26 20 Vétérans 1
71 BALSAN LUC 2437 1:54:18 11,02 5:26 21 Vétérans 1
72 HEYDEN CHRISTIAN 2118 1:54:29 11,00 5:27 5 Vétérans 2
73 DEHEZ ROMAIN 2384 1:54:31 11,00 5:27 46 Séniors
74 HUET EMMANUEL 2127 1:54:43 10,98 5:27 22 Vétérans 1
75 VAN DE VOORT ERIK-JAN 2270 1:54:50 10,97 5:28 6 Vétérans 2
76 D'AFFNAY JEAN-FRANÇOIS 2414 1:55:29 10,91 5:29 47 Séniors
77 DASSESSE THIBAUT 2042 1:55:43 10,89 5:30 23 Vétérans 1
78 HAPPART GRÉGORY 2109 1:55:46 10,88 5:30 24 Vétérans 1
79 MARCQ NICOLAS 2168 1:55:53 10,87 5:31 48 Séniors
80 DEWIT RAYMOND 2067 1:55:57 10,87 5:31 25 Vétérans 1
81 ROOMANS CHRISTIAN 2284 1:55:59 10,86 5:31 7 Vétérans 2
82 REGIBEAU GEORGES 2400 1:56:00 10,86 5:31 8 Vétérans 2
83 BOUTET PHILIPPE 2450 1:56:42 10,80 5:33 26 Vétérans 1
84 ROELANDT ED 2281 1:56:44 10,79 5:33 49 Séniors
85 DHEUR SEBASTIEN 2292 1:57:01 10,77 5:34 50 Séniors
86 RASSART MARC 2206 1:57:14 10,75 5:34 9 Vétérans 2
87 JACOB JEAN 2128 1:57:22 10,73 5:35 27 Vétérans 1
88 LINDEKENS CHRISTIAN 2160 1:57:27 10,73 5:35 51 Séniors
89 EL BALDI SAID 2382 1:57:44 10,70 5:36 28 Vétérans 1
90 VAN LAAR MICHEL 2244 1:57:47 10,70 5:36 10 Vétérans 2
91 ROSILLON CAROLINE 2317 1:58:00 10,68 5:37 1 Dames
92 MINY OLIVIER 2298 1:58:00 10,68 5:37 52 Séniors
93 CHUDYBA JEAN-MARIE 2031 1:58:00 10,68 5:37 29 Vétérans 1
94 PEETERSILLE FREDERIC 2379 1:58:14 10,66 5:37 30 Vétérans 1
95 SCHAERS LAURENT 2221 1:58:17 10,65 5:37 53 Séniors
96 AERTS DANY 2000 1:58:34 10,63 5:38 11 Vétérans 2
97 JEUNEHOMME DENIS 2132 1:58:48 10,60 5:39 31 Vétérans 1
98 GOMBOSO MARC 2386 1:58:59 10,59 5:39 1 Vétérans 3
99 JANS STIJN 2130 1:58:59 10,59 5:39 54 Séniors
100 JEWASINSKI MICHEL 2297 1:59:07 10,58 5:40 32 Vétérans 1
101 RABHIOU OUSSAMA 2470 1:59:11 10,57 5:40 55 Séniors
102 LAMBERT BERTRAND 2141 1:59:16 10,56 5:40 56 Séniors
103 BIASINO FABRICE 2345 1:59:19 10,56 5:40 33 Vétérans 1
104 CANON MATHIEU 2024 1:59:27 10,55 5:41 34 Vétérans 1
105 PINCKAERS CHRISTOPHE 2442 2:00:48 10,43 5:45 57 Séniors
106 DETAILLE DAVID 2066 2:01:04 10,41 5:45 58 Séniors
107 JADIN AUDREY 2318 2:01:09 10,40 5:46 2 Dames
108 LIEGEOIS MARC 2158 2:01:20 10,38 5:46 12 Vétérans 2
109 KEDZIERSKI BENOÎT 2137 2:01:27 10,37 5:47 35 Vétérans 1
110 HEYNEN FRANÇOIS 2120 2:01:41 10,35 5:47 59 Séniors
111 COLLIGNON ARNAUD 2440 2:01:42 10,35 5:47 60 Séniors
112 LOYENS MARC 2165 2:01:46 10,35 5:47 61 Séniors
113 MERCIER CATHERINE 2176 2:01:47 10,35 5:47 1 Ainées 1
114 NEUTELINGS THIBAUT 2185 2:01:52 10,34 5:48 62 Séniors
115 GOESSENS DAVID 2103 2:02:08 10,32 5:48 36 Vétérans 1
116 MOUREAU ADRIEN 2357 2:02:10 10,31 5:49 63 Séniors
117 LEMAIRE GUILLAUME 2419 2:02:18 10,30 5:49 64 Séniors
118 SAUVAGE PIERRE 2436 2:02:20 10,30 5:49 65 Séniors
119 KEIL ALAIN 2308 2:02:21 10,30 5:49 13 Vétérans 2
120 HUET WILLIAM 2126 2:02:25 10,29 5:49 37 Vétérans 1
121 LEMMENS TIBO 2349 2:02:27 10,29 5:49 66 Séniors
122 ORIS MARIO 2191 2:02:35 10,28 5:50 14 Vétérans 2
123 LAMBOT FREDERIC 2420 2:02:36 10,28 5:50 67 Séniors
124 DRIESEN OLIVIER 2309 2:03:41 10,19 5:53 38 Vétérans 1
125 BUSSCHOTS FREDERIC 2439 2:03:59 10,16 5:54 68 Séniors
126 BEDORET GEOFFREY 2010 2:04:01 10,16 5:54 69 Séniors
127 ROYEN CEDRIC 2416 2:04:04 10,15 5:54 70 Séniors
128 YERNAUX LIONEL 2263 2:04:06 10,15 5:54 71 Séniors
129 BAETENS GEERT 2372 2:04:14 10,14 5:54 15 Vétérans 2
130 ERNST SAMUEL 2083 2:04:20 10,13 5:55 72 Séniors
131 PIRSON LAURENT 2200 2:04:26 10,13 5:55 73 Séniors
132 JASPAR STEVE 2327 2:04:48 10,10 5:56 39 Vétérans 1
133 EVRARD JOHAN 2366 2:04:59 10,08 5:57 74 Séniors
134 MONFORT JOSE 2408 2:05:04 10,07 5:57 2 Vétérans 3
135 HAVART XAVIER 2112 2:05:07 10,07 5:57 40 Vétérans 1
136 LAUWERS ALEXANDRE 2144 2:05:19 10,05 5:58 75 Séniors
137 OLIVY ROBIN 2188 2:05:50 10,01 5:59 76 Séniors
138 DORTU ALEXANDRE 2385 2:06:10 9,99 6:00 77 Séniors
139 CHAIDRON RAPHAËL 2026 2:06:17 9,98 6:00 78 Séniors
140 HERNANDEZ MANUEL 2359 2:06:20 9,97 6:00 16 Vétérans 2
141 CHARPENTIER RACHEL 2028 2:06:25 9,97 6:01 2 Ainées 1
142 VERGOUWEN BERND 2250 2:06:27 9,96 6:01 41 Vétérans 1
143 ENGELEN ELKE 2310 2:06:37 9,95 6:01 3 Ainées 1
144 BRASSEUR JONATHAN 2019 2:06:39 9,95 6:01 79 Séniors
145 LOISEAU JEAN-LUC 2415 2:06:51 9,93 6:02 17 Vétérans 2
146 SOREL RENAUD 2229 2:07:02 9,92 6:02 80 Séniors
147 VANDERLINDEN DENIS 2246 2:07:05 9,91 6:03 81 Séniors
148 LEVAUX NOEL 2447 2:07:10 9,91 6:03 42 Vétérans 1
149 CLAES LAURENT 2033 2:07:12 9,90 6:03 43 Vétérans 1
150 DELVENNE MARC 2060 2:07:17 9,90 6:03 18 Vétérans 2
151 DELCOMINETTE ANNE 2053 2:07:24 9,89 6:04 2 Ainées 2
152 ROBINET DANY 2362 2:07:25 9,89 6:04 82 Séniors
153 DELROUALLE ANDRÉ 2058 2:07:36 9,87 6:04 19 Vétérans 2
154 CHAIDRON STEPHANE 2296 2:07:38 9,87 6:04 44 Vétérans 1
155 LIEVENS SAMY 2475 2:07:49 9,86 6:05 83 Séniors
156 LEGRAND JEAN-PIERRE 2341 2:07:57 9,85 6:05 84 Séniors
157 ROSSION PASCAL 2216 2:07:58 9,85 6:05 45 Vétérans 1
158 HEEREN KEVIN 2113 2:07:59 9,84 6:05 85 Séniors
159 FRATANTONIO DAVID 2091 2:08:01 9,84 6:05 46 Vétérans 1
160 FASSOTTE RAPHAËL 2086 2:08:17 9,82 6:06 47 Vétérans 1
161 DELAVAL PIERRE-HENRI 2052 2:08:33 9,80 6:07 48 Vétérans 1
162 BRASSINE BENOÎT 2020 2:08:33 9,80 6:07 49 Vétérans 1
163 HARDY MARC 2110 2:08:44 9,79 6:07 50 Vétérans 1
164 PEETERS TOON 2411 2:08:46 9,78 6:07 86 Séniors
165 HEYDEN COLINE 2119 2:08:59 9,77 6:08 3 Dames
166 KRUG EMMA 2457 2:09:01 9,77 6:08 3 Ainées 2
167 MATAGNE SOPHIE 2172 2:09:03 9,76 6:08 4 Ainées 1
168 DIEDEREN PHIL 2311 2:09:13 9,75 6:09 51 Vétérans 1
169 DEWULF NOELLE 2068 2:09:18 9,74 6:09 5 Ainées 1
170 DENDAL DIDIER 2062 2:09:24 9,74 6:09 20 Vétérans 2
171 DAENEN LORENZ 2472 2:09:33 9,73 6:10 87 Séniors
172 STERCK CHRISTIAN 2271 2:09:49 9,71 6:10 52 Vétérans 1
173 HUBERT HENRY 2125 2:10:03 9,69 6:11 53 Vétérans 1
174 TYCHON JULIEN 2238 2:10:17 9,67 6:12 88 Séniors
175 DIAS DANIEL 2069 2:10:19 9,67 6:12 54 Vétérans 1
176 STERCKX LAURENT 2230 2:10:22 9,66 6:12 89 Séniors
177 BODSON VINCENT 2460 2:10:25 9,66 6:12 55 Vétérans 1
178 MIGNON LAURENT 2424 2:10:26 9,66 6:12 56 Vétérans 1
179 PIERRE FABIAN 2461 2:10:27 9,66 6:12 57 Vétérans 1
180 VERHOEVE KLAAS 2248 2:10:28 9,66 6:12 90 Séniors
181 BOLAND ALAIN 2293 2:10:43 9,64 6:13 21 Vétérans 2
182 JORIS DAVID 2277 2:10:52 9,63 6:13 91 Séniors
183 VOGELEER MICHEL 2254 2:11:19 9,59 6:15 58 Vétérans 1
184 AERTS RAPHAEL 2001 2:11:20 9,59 6:15 92 Séniors
185 SCHELDEMAN BJORN 2392 2:11:26 9,59 6:15 93 Séniors
186 CLAES CATHERINE 2032 2:11:33 9,58 6:15 6 Ainées 1
187 STEFFENS BENOIT 2363 2:11:36 9,57 6:16 59 Vétérans 1
188 THOMAS XAVIER 2401 2:11:37 9,57 6:16 60 Vétérans 1
189 PETIT AXEL 2351 2:11:39 9,57 6:16 61 Vétérans 1
190 NYSSEN PIERRE 2402 2:11:43 9,57 6:16 62 Vétérans 1
191 PIRARD XAVIER 2438 2:11:44 9,56 6:16 94 Séniors
192 VAN CAUWENBERGE PIERRE 2468 2:11:48 9,56 6:16 95 Séniors
193 MALCHAIRE RAPHAEL 2289 2:11:50 9,56 6:16 63 Vétérans 1
194 VOSS CÉDRIC 2256 2:11:54 9,55 6:16 96 Séniors
195 BRUCCOLERI PAOLO 2022 2:11:59 9,55 6:17 22 Vétérans 2
196 DUYCKAERTS GEOFFREY 2329 2:12:12 9,53 6:17 97 Séniors
197 PIRARD VINCENT 2330 2:12:13 9,53 6:17 98 Séniors
198 DACO RAPHAEL 2398 2:12:15 9,53 6:17 99 Séniors
199 DELINCÉ GEOFFREY 2055 2:12:26 9,51 6:18 100 Séniors
200 LEMAIRE CHRISTOPHE 2151 2:12:34 9,50 6:18 64 Vétérans 1
201 FAFCHAMPS CLAUDINE 2085 2:12:43 9,49 6:19 4 Ainées 2
202 LAVIGNE MICHEL 2145 2:12:59 9,47 6:19 23 Vétérans 2
203 VANDUREN STEFAN 2247 2:13:01 9,47 6:20 24 Vétérans 2
204 BASTIN JEAN-LUC 2006 2:13:16 9,45 6:20 25 Vétérans 2
205 DONNEAUX ERIC 2072 2:13:16 9,45 6:20 65 Vétérans 1
206 AMORMINO MAXIME 2002 2:13:17 9,45 6:20 101 Séniors
207 DE COSTER THOMAS 2044 2:13:25 9,44 6:21 102 Séniors
208 GREGOIRE BERNARD 2106 2:13:30 9,44 6:21 66 Vétérans 1
209 RENSONNET STEVE 2463 2:13:39 9,43 6:21 103 Séniors
210 LEGROS PASCAL 2307 2:14:09 9,39 6:23 26 Vétérans 2
211 CREPPE JULIEN 2393 2:14:17 9,38 6:23 104 Séniors
212 ARGENTO CARMELO 2314 2:14:26 9,37 6:24 105 Séniors
213 DELMOITIEZ STÉPHANE 2056 2:14:28 9,37 6:24 67 Vétérans 1
214 CHALLE RENAUD 2027 2:14:35 9,36 6:24 27 Vétérans 2
215 MICHOTTE MICHEL 2467 2:14:41 9,35 6:24 68 Vétérans 1
216 BIERLY CHRISTOPHE 2380 2:14:44 9,35 6:24 69 Vétérans 1
217 CLERBOIS CHRISTOPHE 2034 2:14:46 9,35 6:25 70 Vétérans 1
218 SELY DIANE 2225 2:14:53 9,34 6:25 4 Dames
219 BERTRAND OLIVIER 2319 2:15:05 9,33 6:25 71 Vétérans 1
220 TASSET CHRISTIAN 2233 2:15:12 9,32 6:26 3 Vétérans 3
221 WATHELET SAMUEL 2462 2:15:15 9,32 6:26 72 Vétérans 1
222 MAX BENJAMIN 2174 2:15:27 9,30 6:27 106 Séniors
223 DUMOULIN PHILIPPE 2078 2:15:31 9,30 6:27 28 Vétérans 2
224 HAGELSTEIN JEREMY 2291 2:15:33 9,29 6:27 107 Séniors
225 CLOES RAPHAEL 2036 2:15:34 9,29 6:27 108 Séniors
226 HEUSSCHEN CHRISTINE 2286 2:15:41 9,29 6:27 5 Ainées 2
227 GODFROID XAVIER 2102 2:15:51 9,27 6:28 109 Séniors
228 SERVAIS RONALD 2226 2:15:55 9,27 6:28 73 Vétérans 1
229 WISLEZ FREDDY 2456 2:16:05 9,26 6:28 4 Vétérans 3
230 TASSET CHRISTOPHE 2425 2:16:17 9,25 6:29 110 Séniors
231 OLIVIER JEAN-CHRISTOPHE 2299 2:16:24 9,24 6:29 74 Vétérans 1
232 GEEURICKX BJORN 2096 2:16:26 9,23 6:29 111 Séniors
233 DE RIDDER MICHIEL 2045 2:16:28 9,23 6:29 112 Séniors
234 WINKIN LIONEL 2259 2:17:14 9,18 6:32 113 Séniors
235 LOMBARDO MICHELE 2161 2:17:15 9,18 6:32 7 Ainées 1
236 ROUSSEL CÉDRIC 2218 2:17:16 9,18 6:32 114 Séniors
237 LEGRAND JOSEPH 2149 2:17:29 9,16 6:32 5 Vétérans 3
238 MEESEN ARLETTE 2175 2:17:36 9,16 6:33 6 Ainées 2
239 VON AGRIS CHRISTA 2255 2:17:36 9,16 6:33 7 Ainées 2
240 MARCHAL XAVIER 2454 2:17:41 9,15 6:33 29 Vétérans 2
241 HORTEN JEAN-MICHEL 2121 2:17:45 9,15 6:33 75 Vétérans 1
242 JOSSE NOEL 2285 2:17:47 9,14 6:33 6 Vétérans 3
243 VERKENNE FABIAN 2251 2:18:02 9,13 6:34 115 Séniors
244 SICIM MUSTAFA 2443 2:18:08 9,12 6:34 76 Vétérans 1
245 JODOGNE ANNE 2134 2:18:22 9,11 6:35 8 Ainées 1
246 LEMACHE YVES 2355 2:18:30 9,10 6:35 77 Vétérans 1
247 MATTIUZ FABIAN 2434 2:18:31 9,10 6:35 116 Séniors
248 DRIESSENS STEPHANE 2377 2:18:34 9,09 6:35 78 Vétérans 1
249 RENARD JÉRÔME 2208 2:18:49 9,08 6:36 117 Séniors
250 GASPARD CHRISTIAN 2095 2:18:54 9,07 6:36 30 Vétérans 2
251 FRAIPONT JEAN-MARC 2090 2:18:54 9,07 6:36 79 Vétérans 1
252 HERTAY PHILIPPE 2356 2:19:09 9,05 6:37 31 Vétérans 2
253 NOTERMANS ERIC 2448 2:19:13 9,05 6:37 32 Vétérans 2
254 HERMAN ELODIE 2116 2:19:16 9,05 6:37 5 Dames
255 VANDEMOORTEL WIM 2287 2:19:21 9,04 6:38 118 Séniors
256 COOREMANS VERO 2367 2:19:44 9,02 6:39 8 Ainées 2
257 VAN BOXSTAEL DAVY 2474 2:19:49 9,01 6:39 119 Séniors
258 REMY ELODIE 2376 2:19:58 9,00 6:39 6 Dames
259 GEORIS SEBASTIEN 2378 2:19:58 9,00 6:39 120 Séniors
260 BIDOUL GIL 2338 2:20:14 8,98 6:40 121 Séniors
261 LEMMENS CHRISTOPHE 2153 2:20:17 8,98 6:40 80 Vétérans 1
262 HANS JULIEN 2476 2:20:19 8,98 6:40 122 Séniors
263 JANS ROMAIN 2478 2:20:22 8,98 6:41 123 Séniors
264 SACRÉ STÉPHANIE 2219 2:20:32 8,97 6:41 7 Dames
265 GASPARD PIERRE 2395 2:20:47 8,95 6:42 124 Séniors
266 SARLET JULIE 2339 2:21:00 8,94 6:42 8 Dames
267 LEGROS GHISLAIN 2340 2:21:00 8,94 6:42 81 Vétérans 1
268 CAMPION SYLVAIN 2389 2:21:05 8,93 6:43 33 Vétérans 2
269 VAN HAEVERE CHRIS 2288 2:21:06 8,93 6:43 125 Séniors
270 LHOEST PASCALE 2157 2:21:08 8,93 6:43 9 Ainées 2
271 BONIVER FRED 2012 2:21:29 8,91 6:44 82 Vétérans 1
272 NOKIN MARIANNE 2337 2:21:35 8,90 6:44 10 Ainées 2
273 WATHELET STEPHANIE 2477 2:21:38 8,90 6:44 9 Ainées 1
274 VAN PEE JOHAN 2245 2:22:12 8,86 6:46 83 Vétérans 1
275 RONVEAUX VALENTINE 2215 2:22:21 8,85 6:46 9 Dames
276 PHILIPPE AUDREY 2413 2:22:42 8,83 6:47 10 Ainées 1
277 DONNEAUX NICOLAS 2449 2:22:43 8,83 6:47 126 Séniors
278 MINGUET XAVIER 2444 2:22:46 8,83 6:47 84 Vétérans 1
279 SOMJA JEAN-PHILIPPE 2418 2:22:47 8,82 6:47 127 Séniors
280 VALOIR FRANÇOIS 2239 2:23:01 8,81 6:48 128 Séniors
281 LARBUISSON JESSICA 2429 2:23:04 8,81 6:48 10 Dames
282 LEFEVRE LAURENT 2148 2:23:05 8,81 6:48 129 Séniors
283 CLERX RENAUD 2035 2:23:23 8,79 6:49 130 Séniors
284 REMACLE DELPHINE 2352 2:24:10 8,74 6:51 11 Ainées 1
285 DUCHATEAU RENÉ 2077 2:24:14 8,74 6:52 85 Vétérans 1
286 BEBRONNE XAVIER 2405 2:24:22 8,73 6:52 131 Séniors
287 FOSSOUL RAPHAEL 2315 2:24:23 8,73 6:52 132 Séniors
288 QUERCETTI BRUNO 2394 2:24:31 8,72 6:52 86 Vétérans 1
289 PINCKAERS SYLVIA 2197 2:24:38 8,71 6:53 11 Ainées 2
290 DECHAMPS VALÉRIE 2048 2:24:43 8,71 6:53 12 Ainées 1
291 LAMBY MARC 2142 2:24:55 8,69 6:54 87 Vétérans 1
292 SCHYNS THOMAS 2224 2:25:29 8,66 6:55 133 Séniors
293 CULOT STEPHANE 2336 2:25:30 8,66 6:55 88 Vétérans 1
294 LEMPEREUR SIMON 2482 2:25:39 8,65 6:56 134 Séniors
295 MONAMI SERGE 2381 2:25:52 8,64 6:56 34 Vétérans 2
296 RENNOTTE RAPHAEL 2435 2:25:53 8,64 6:56 89 Vétérans 1
297 DAUPHIN FRÉDÉRIC 2043 2:26:52 8,58 6:59 90 Vétérans 1
298 DUSPEAUX FABIENNE 2081 2:26:56 8,57 6:59 12 Ainées 2
299 MARLIER DAVID 2335 2:27:06 8,56 7:00 35 Vétérans 2
300 GALIOTTO XAVIER 2092 2:27:32 8,54 7:01 135 Séniors
301 WARNOTTE MARIE 2258 2:27:44 8,53 7:02 13 Ainées 1
302 ROSA LAURENT 2282 2:27:46 8,53 7:02 91 Vétérans 1
303 BOULANGER EMMANUEL 2015 2:27:47 8,53 7:02 92 Vétérans 1
304 ROMAIN XAVIER 2213 2:27:48 8,52 7:02 93 Vétérans 1
305 DEBATTY JEAN-POL 2320 2:27:52 8,52 7:02 94 Vétérans 1
306 SOMJA LAURE 2228 2:28:17 8,50 7:03 14 Ainées 1
307 KAIRIS CÉCILE 2136 2:28:18 8,50 7:03 15 Ainées 1
308 HOSSAY VALÉRIE 2123 2:28:23 8,49 7:03 16 Ainées 1
309 PAQUE JEAN MARC 2361 2:28:44 8,47 7:04 36 Vétérans 2
310 HAUSMANN BERTRAND 2348 2:29:39 8,42 7:07 37 Vétérans 2
311 LEMMENS NATHALIE 2350 2:30:49 8,35 7:10 11 Dames
312 CERISIER DELPHINE 2025 2:30:51 8,35 7:11 17 Ainées 1
313 DUSART PAUL 2080 2:30:53 8,35 7:11 38 Vétérans 2
314 FETTWEIS THIERRY 2473 2:31:20 8,33 7:12 39 Vétérans 2
315 MEUNIER CEDRIC 2397 2:31:36 8,31 7:13 136 Séniors
316 BASTIN PAUL 2283 2:31:37 8,31 7:13 7 Vétérans 3
317 JASSELETTE CHRISTOPHE 2131 2:31:47 8,30 7:13 137 Séniors
318 D'HEERE JEAN-CLAUDE 2040 2:31:50 8,30 7:13 40 Vétérans 2
319 FAFCHAMPS CHRISTINE 2322 2:31:56 8,29 7:14 13 Ainées 2
320 MEINGUET LAURENT 2321 2:31:56 8,29 7:14 95 Vétérans 1
321 CHOJNACKI OLIVIER 2029 2:32:32 8,26 7:15 96 Vétérans 1
322 HERMANS SOFIE 2117 2:32:52 8,24 7:16 18 Ainées 1
323 BRANCE JOSÉ 2410 2:32:59 8,24 7:17 41 Vétérans 2
324 ROEX JULIE 2212 2:33:13 8,22 7:17 12 Dames
325 LEKEU JULIE 2150 2:33:13 8,22 7:17 13 Dames
326 BEAUJEAN DENIS 2007 2:33:28 8,21 7:18 97 Vétérans 1
327 ISERENTANT CARINE 2295 2:33:29 8,21 7:18 14 Ainées 2
328 WINTIEN JOHAN 2261 2:34:18 8,17 7:20 138 Séniors
329 ADAMS-DESTER BERNARD 2407 2:34:18 8,17 7:20 42 Vétérans 2
330 WINANDY JEAN PIERRE 2364 2:34:31 8,15 7:21 43 Vétérans 2
331 LECOUVET AGNES 2147 2:34:47 8,14 7:22 14 Dames
332 THIRION ALAIN 2234 2:35:14 8,12 7:23 44 Vétérans 2
333 PAULAUSKAS IVAN 2272 2:35:32 8,10 7:24 98 Vétérans 1
334 COUNET ANNE 2483 2:35:43 8,09 7:24 19 Ainées 1
335 LAUWERS DAVID 2431 2:35:46 8,09 7:25 139 Séniors
336 NELIS STEPHAN 2184 2:35:47 8,09 7:25 45 Vétérans 2
337 LAMBERT BENOIT 2446 2:35:50 8,09 7:25 99 Vétérans 1
338 TRUONG JULIE 2465 2:35:56 8,08 7:25 15 Dames
339 KENLER PHILIPPE 2390 2:36:13 8,07 7:26 8 Vétérans 3
340 GILLET PASCAL 2481 2:37:00 8,03 7:28 100 Vétérans 1
341 LISSENS JEROME 2480 2:37:00 8,02 7:28 140 Séniors
342 POLIS LULU 2202 2:37:24 8,00 7:29 15 Ainées 2
343 MEURICE ISABELLE 2177 2:37:38 7,99 7:30 16 Ainées 2
344 PORTA ROLAND 2417 2:38:05 7,97 7:31 141 Séniors
345 MICHEL OLIVIER 2178 2:38:37 7,94 7:33 142 Séniors
346 CHAINEUX MARC 2428 2:38:43 7,94 7:33 101 Vétérans 1
347 VLIEX PIETER 2278 2:38:43 7,94 7:33 46 Vétérans 2
348 GILLIOT CYRIELLE 2099 2:38:56 7,93 7:34 16 Dames
349 COUTURIER GRÉGOIRE 2038 2:38:56 7,93 7:34 143 Séniors
350 BOLAND MELANIE 2294 2:39:23 7,91 7:35 17 Dames
351 BEAUWENS FLORENCE 2008 2:39:45 7,89 7:36 18 Dames
352 KLOMPKES VERONIQUE 2422 2:40:41 7,84 7:39 17 Ainées 2
353 BOULANGER JEAN LUC 2423 2:40:42 7,84 7:39 47 Vétérans 2
354 ARNOULD LAURA 2004 2:41:07 7,82 7:40 19 Dames
355 PIERRON ROLAND 2344 2:41:35 7,80 7:41 9 Vétérans 3
356 FEDSOSEEW HERVÉ 2087 2:42:22 7,76 7:43 144 Séniors
357 WEGLOWSKI DAVID 2323 2:42:22 7,76 7:43 102 Vétérans 1
358 MEUNIER VERONIQUE 2324 2:42:22 7,76 7:43 20 Ainées 1
359 BEENDERS ALEXANDRE 2459 2:42:26 7,76 7:44 145 Séniors
360 BERNARD ERIC 2374 2:42:29 7,75 7:44 48 Vétérans 2
361 ARCHELON FRÉDÉRIC 2003 2:43:31 7,71 7:47 103 Vétérans 1
362 BOSSUYT ANNE-MARIE 2013 2:43:31 7,71 7:47 18 Ainées 2
363 BECK JACQUES 2009 2:43:31 7,71 7:47 49 Vétérans 2
364 WINTACQ BENOÎT 2260 2:44:23 7,66 7:49 104 Vétérans 1
365 BOYER SONIA 2306 2:46:20 7,57 7:55 19 Ainées 2
366 BRONSART AUDREY 2021 2:46:42 7,56 7:56 20 Dames
367 RAMAEKERS ISABELLE 2205 2:47:30 7,52 7:58 1 Ainées 3
368 COUMONT RENE 2301 2:48:59 7,46 8:02 10 Vétérans 3
369 JANIAK MARTINE 2300 2:49:12 7,45 8:03 21 Ainées 1
370 COLIN JEAN-LOUIS 2375 2:49:12 7,45 8:03 11 Vétérans 3
371 BRUTINEL MURIEL 2023 2:49:56 7,41 8:05 22 Ainées 1
372 STOCK CÉCILE 2232 2:49:56 7,41 8:05 21 Dames
373 DUBUFFET ERIC 2076 2:50:56 7,37 8:08 105 Vétérans 1
374 HABRAN PHILIPPE 2290 2:50:56 7,37 8:08 50 Vétérans 2
375 MALOIR FLORENCE 2167 2:52:41 7,30 8:13 22 Dames
376 MASSIN RUDI 2170 2:53:57 7,24 8:17 106 Vétérans 1
377 DENOISIEUX CHRISTIAN 2063 2:54:02 7,24 8:17 107 Vétérans 1
378 LEMMENS STÉPHANIE 2154 2:56:33 7,14 8:24 23 Ainées 1
379 DESPY PASCAL 2065 2:56:33 7,14 8:24 146 Séniors
380 DEMONT KATIA 2061 2:57:57 7,08 8:28 24 Ainées 1
381 PIETTE SYLVIE 2195 2:58:22 7,06 8:29 20 Ainées 2
382 LECLOUX GREGORY 2273 2:58:47 7,05 8:30 147 Séniors
383 MICHEL VINCENT 2274 2:58:48 7,05 8:30 108 Vétérans 1
384 LECLEIRE PATRICK 2399 2:59:33 7,02 8:33 109 Vétérans 1
385 CLOSSET GERALDINE 2430 3:00:14 6,99 8:34 25 Ainées 1
386 JACOB MARIE 2432 3:00:14 6,99 8:34 26 Ainées 1
387 DELHAYE FABIENNE 2054 3:00:15 6,99 8:35 21 Ainées 2
388 MORDANT FÉLIX 2179 3:01:00 6,96 8:37 1 Vétérans 4
389 RADERMECKER MARIE-ANNE 2204 3:01:06 6,96 8:37 22 Ainées 2
390 BRAGARD CHANTAL 2018 3:01:45 6,93 8:39 23 Ainées 2
391 RADERMECKER JULIE 2433 3:02:21 6,91 8:41 23 Dames
392 ERNOULD MARIE 2082 3:02:21 6,91 8:41 24 Dames
393 BODEUX AURELIE 2387 3:02:21 6,91 8:41 27 Ainées 1
394 KOJAC MICHELE 2391 3:03:34 6,86 8:44 24 Ainées 2
395 LOVENBERG GUY 2164 3:06:45 6,75 8:53 51 Vétérans 2
396 RADERMECKER BENJAMIN 2303 3:11:07 6,59 9:06 110 Vétérans 1
397 VERMEIRE BENEDICTE 2304 3:11:07 6,59 9:06 28 Ainées 1
398 REPANTI ANNE 2210 3:13:37 6,51 9:13 25 Dames
399 MTIR ISKANDER 2183 3:13:37 6,51 9:13 148 Séniors
400 LEMPEREUR PATRICE 2369 3:18:19 6,35 9:26 12 Vétérans 3
401 DE WACHTER JEAN-FRANÇOIS 2046 3:32:56 5,92 10:08 52 Vétérans 2